Dewpoint
17 17 17 17 16 15 16 15 14 13 12 11 12 11 13 14 13 11 9 9 11 18 25 28 28 31 33 34 35 38 37 38 39 40 41 43 45 47 47 46 46 46 47 47 47 45 44 43 41 39 40 33 30 30 29 25 25 24 24 25 23 23 24 25 26 24 21 21 22 22 22 24 31 25 21 21 24 28 30 30 31 34 35 35 34
15 15 15 16 15 16 15 14 17 13 12 11 10 10 10 13 14 11 11 9 9 12 14 19 26 30 31 33 33 36 35 35 35 36 37 38 40 41 44 45 46 46 45 46 46 46 45 44 41 39 37 32 31 33 29 28 27 25 25 24 24 23 23 25 26 22 21 19 18 18 20 21 28 24 21 19 22 26 28 28 29 31 32 32 33
14 14 15 15 16 15 14 13 13 13 13 11 10 10 8 10 13 13 11 10 10 12 12 11 16 22 29 32 33 34 35 35 35 35 35 35 36 37 38 40 43 44 44 44 45 45 45 45 43 40 38 34 32 28 27 26 26 25 24 23 23 23 24 26 24 20 18 20 20 18 16 17 21 21 21 21 21 23 27 26 28 28 29 30 32
15 14 14 14 15 14 14 13 13 13 13 11 10 9 9 10 11 13 12 10 10 12 14 11 12 14 22 28 29 32 31 32 33 33 33 33 34 34 35 36 38 41 43 43 43 44 44 44 44 42 39 39 38 37 32 27 26 25 24 23 23 21 23 25 25 21 20 18 16 16 17 16 15 17 18 20 20 19 25 26 27 26 26 26 29
16 15 15 15 15 15 15 15 14 13 13 13 11 10 9 8 9 13 12 11 10 13 10 11 10 10 11 16 18 21 25 27 28 29 30 31 31 32 33 34 35 36 38 40 42 43 42 43 42 43 41 40 39 39 37 32 27 27 25 24 23 21 22 23 25 22 21 18 18 16 17 13 16 14 17 17 18 16 19 25 27 25 24 25 27
16 16 16 16 16 16 15 15 14 13 13 14 13 12 11 9 8 11 13 11 10 10 10 12 9 8 9 11 12 13 17 21 23 25 27 28 29 31 32 33 34 34 35 36 37 39 41 41 41 41 41 41 40 39 39 37 36 32 25 24 23 22 22 23 23 25 22 21 19 16 17 17 15 15 16 14 19 19 20 22 25 24 24 25 25
15 16 17 16 16 16 15 15 15 13 14 15 14 14 12 11 9 9 12 13 11 10 9 12 9 8 8 9 10 11 11 14 17 23 24 25 28 29 29 31 32 33 33 34 34 35 36 39 40 40 40 40 39 39 38 37 37 33 29 26 25 25 24 24 23 22 22 21 22 20 26 23 16 16 15 13 13 15 15 16 19 23 23 23 23
13 14 16 17 17 16 16 15 15 15 15 16 15 15 13 12 11 9 11 14 12 11 8 11 10 9 8 8 11 10 9 9 10 12 16 21 22 24 27 28 29 31 32 32 34 34 34 35 36 38 39 39 39 39 39 38 37 36 36 28 26 25 24 25 24 22 21 20 20 19 21 19 16 14 14 12 13 13 14 14 16 17 21 21 22
12 13 13 15 16 17 17 15 15 16 16 15 15 15 15 13 13 10 9 12 12 11 10 8 12 9 8 8 8 10 9 9 10 10 10 11 13 16 20 24 27 28 30 31 31 32 32 34 34 34 35 37 38 38 37 38 36 35 35 35 32 28 26 25 25 24 22 21 20 19 18 16 15 14 14 13 15 13 11 14 15 16 18 20 20
16 15 15 15 15 16 18 17 15 15 16 17 15 15 15 14 13 10 8 11 13 10 9 9 10 11 7 7 7 8 9 8 8 8 8 9 9 11 14 16 21 24 27 29 29 28 30 30 31 32 33 34 35 36 35 35 35 35 35 35 35 33 31 27 25 25 23 22 20 20 18 18 14 13 13 13 11 11 10 12 14 16 17 19 19
17 16 17 16 16 17 18 17 15 16 16 16 15 14 14 14 12 9 8 11 12 11 10 9 9 10 8 7 7 7 7 7 7 6 8 7 8 9 11 13 15 16 21 23 26 25 25 26 28 28 31 32 33 34 34 35 35 35 36 35 34 34 35 32 29 27 25 23 22 21 20 18 14 16 16 13 11 10 9 11 13 15 17 17 18
18 18 17 18 17 17 18 17 16 15 15 15 15 17 18 15 13 8 8 10 11 13 11 10 10 10 9 7 7 8 7 6 6 6 7 7 8 9 10 11 11 12 12 11 15 17 22 23 25 26 27 29 30 32 33 34 35 35 35 35 36 35 35 34 33 31 27 25 23 21 21 20 18 16 15 15 12 10 9 10 12 14 15 17 15
19 18 17 18 17 17 17 17 15 16 15 14 15 16 17 16 14 10 7 8 8 11 10 9 9 10 10 8 7 11 9 7 7 7 7 7 8 8 9 8 8 10 8 12 11 12 14 16 20 23 25 27 28 29 31 33 34 35 35 35 35 35 36 35 34 33 31 28 25 22 21 21 19 19 20 16 14 12 12 12 13 14 13 15 15
19 18 18 17 17 15 17 15 13 13 14 14 14 17 16 17 15 14 8 10 10 8 9 9 9 9 10 9 8 8 8 9 6 8 6 7 8 8 9 8 7 6 7 8 11 13 11 13 15 18 23 26 27 28 29 31 32 34 34 34 35 35 35 34 34 32 32 30 28 26 23 21 20 20 19 18 15 15 13 13 14 13 12 14 11
18 18 17 16 15 13 13 13 10 10 10 12 13 13 15 16 16 12 10 9 10 9 11 8 9 8 8 9 8 8 8 6 5 12 7 7 7 8 9 8 7 6 8 8 10 9 9 11 13 16 19 22 25 27 28 29 31 32 34 35 35 35 35 34 33 32 31 30 29 29 27 24 21 20 20 19 17 16 15 14 15 15 11 11 12
17 16 15 14 13 11 12 10 8 9 8 10 10 10 11 14 14 12 10 8 10 12 11 10 8 7 6 6 6 8 12 9 8 9 8 7 7 8 9 7 8 7 7 9 7 8 8 10 12 14 17 21 23 25 26 27 29 30 32 34 34 35 35 34 35 33 31 30 29 28 28 27 25 22 21 20 18 17 17 16 14 15 13 11 9
16 14 12 12 10 9 9 7 6 5 5 6 8 8 9 12 11 10 9 8 9 10 9 10 9 6 4 5 5 5 5 5 5 6 6 7 8 8 9 7 6 6 7 10 9 8 9 11 13 14 17 19 20 21 24 25 27 28 29 31 33 34 35 34 35 35 35 33 29 28 27 27 27 25 23 22 20 18 16 16 15 14 15 12 10
13 13 12 11 11 9 6 5 3 3 4 5 6 7 11 14 12 10 8 6 6 6 6 6 7 7 4 4 5 5 5 5 6 6 7 8 7 8 8 6 5 7 9 9 9 8 9 13 13 15 16 17 17 18 20 22 25 26 28 30 32 34 34 34 35 35 35 35 34 33 29 27 27 27 26 24 22 20 17 16 15 15 15 14 13
10 9 9 9 8 5 3 2 2 3 4 5 8 9 10 9 9 9 8 7 7 6 6 6 7 6 5 6 5 5 5 5 7 8 7 7 7 7 7 6 6 7 9 9 9 9 10 12 14 14 14 14 13 12 14 17 20 23 26 28 30 32 33 33 34 35 35 35 34 33 34 33 31 28 27 27 25 25 21 18 16 16 18 15 17
6 5 5 5 4 1 2 2 3 4 5 7 6 6 5 4 5 4 5 6 5 3 4 4 4 4 4 6 6 6 7 7 6 5 6 6 6 6 6 5 6 9 9 10 10 11 12 12 13 13 13 11 9 9 9 12 15 18 22 25 26 29 31 32 33 34 34 35 34 34 34 34 34 33 31 29 28 27 25 20 19 18 17 16 16
5 4 3 2 1 0 2 3 5 5 5 6 4 4 4 4 4 3 2 2 2 3 2 2 3 3 5 5 5 7 7 6 6 6 6 7 7 8 6 6 7 9 9 10 10 11 12 13 13 13 11 9 8 7 8 10 13 16 17 21 23 25 28 31 33 33 34 34 34 33 33 34 34 33 33 32 30 29 29 26 23 19 18 18 17
3 3 1 1 -0 1 3 3 4 3 3 4 5 5 5 5 5 4 4 4 4 4 3 2 2 2 2 4 5 6 5 6 6 6 7 7 7 6 6 7 8 8 9 10 10 11 12 13 13 11 9 7 7 8 8 9 10 13 16 19 21 23 24 26 30 32 33 33 33 33 33 33 34 33 33 33 32 30 30 28 27 25 20 19 16
1 1 0 -1 0 2 3 3 2 2 2 3 4 4 5 5 5 5 5 5 5 5 5 4 4 4 3 3 4 4 5 5 5 6 6 7 7 7 7 8 9 9 9 10 11 11 12 12 11 9 7 7 7 7 8 8 9 10 12 14 18 21 23 24 26 30 32 33 33 33 33 33 33 33 33 33 32 31 30 29 29 29 26 23 19
-1 -0 -1 -1 1 0 -1 -0 0 1 2 2 3 6 6 6 6 6 6 6 6 6 6 5 5 5 5 5 7 7 7 7 6 6 6 7 8 8 9 8 8 9 9 10 9 10 11 11 9 7 7 7 7 8 8 9 8 9 10 11 12 16 20 23 25 25 30 32 32 32 32 33 33 33 33 33 33 33 31 30 29 29 29 28 25
-1 -1 -1 -1 -1 -1 -1 0 1 2 2 3 7 7 7 7 6 5 5 5 5 6 6 6 7 7 8 8 8 9 9 8 8 8 8 9 9 9 8 8 9 9 9 9 9 9 9 8 7 7 7 6 7 7 8 8 9 9 10 11 13 15 18 22 24 25 26 30 32 32 32 33 33 32 32 32 33 32 32 31 29 29 29 29 29
-1 -1 -0 -1 -1 -1 -0 1 1 2 3 6 8 7 6 5 3 3 3 4 5 6 7 8 8 9 9 11 10 9 9 8 9 9 9 9 10 9 9 9 9 9 9 9 9 9 9 8 7 7 7 7 7 7 7 8 8 9 10 11 14 14 17 19 22 23 25 26 30 32 32 32 32 32 32 32 32 32 32 32 30 29 28 28 28
-1 0 -0 -1 -1 -1 -0 0 2 3 4 7 8 5 4 3 2 2 3 4 5 5 7 7 7 7 10 9 9 8 9 10 10 10 10 9 9 9 9 9 9 9 9 9 9 9 9 8 7 7 6 6 7 7 8 8 9 9 11 13 14 15 17 18 19 22 25 27 28 30 32 32 32 32 32 32 32 32 32 31 31 31 30 28 28
-0 0 -0 -0 -0 -0 0 1 3 3 4 7 5 5 4 2 2 2 3 3 3 4 4 6 5 6 7 8 8 9 10 10 11 11 11 10 9 8 8 8 9 8 8 8 8 8 8 8 7 6 7 7 7 7 8 8 9 11 12 13 14 16 17 18 19 19 21 23 25 27 30 32 32 32 32 32 32 32 32 31 32 31 31 29 28
-0 -0 0 1 1 1 2 2 2 2 3 6 7 6 4 3 2 2 3 3 3 4 3 4 4 5 6 7 8 7 9 10 11 11 10 8 7 5 5 6 6 6 7 7 8 9 8 8 7 6 6 6 6 7 7 8 9 9 11 11 12 14 17 18 19 19 20 21 22 24 26 29 32 32 32 32 32 32 32 32 32 32 31 30 29
1 1 2 1 2 2 2 1 1 4 8 8 6 5 4 2 2 3 3 3 3 2 3 4 5 5 5 5 5 6 6 7 7 5 3 3 2 4 6 7 7 8 8 8 9 9 8 8 7 5 5 5 6 6 9 10 11 11 12 13 14 15 15 16 17 18 19 21 22 23 25 26 28 31 32 32 32 32 32 32 32 32 31 31 30
2 2 3 3 2 1 0 1 4 7 6 5 4 3 2 2 3 4 4 3 3 4 5 5 5 5 5 5 5 5 6 5 3 1 1 2 4 7 8 9 9 10 9 9 8 9 9 8 7 6 5 4 5 6 9 14 16 18 16 15 16 17 17 18 19 19 20 21 21 22 23 25 27 28 31 32 32 32 32 32 32 32 32 32 31
4 4 4 3 1 0 0 4 6 5 4 2 1 1 2 3 4 5 5 5 5 5 5 4 5 5 4 5 5 4 3 1 1 1 3 6 8 8 7 8 9 9 10 10 9 9 9 8 8 7 5 4 4 8 14 15 17 18 18 15 16 17 19 20 20 21 21 21 21 21 22 23 24 26 27 30 32 32 32 32 32 32 32 32 32
5 5 4 2 1 0 3 4 3 1 1 0 2 4 4 5 5 5 5 5 4 4 4 4 4 4 4 4 3 1 0 0 4 6 8 6 5 6 6 7 8 10 10 10 10 9 8 7 5 5 4 4 4 8 14 16 17 18 18 16 15 17 19 20 21 21 21 21 21 20 20 20 21 23 25 27 29 31 32 32 32 32 32 32 32
5 3 2 1 1 3 3 2 1 0 1 3 5 5 5 5 4 3 3 3 3 3 3 3 3 3 2 1 0 0 2 6 6 5 4 4 5 6 7 8 8 8 9 9 8 7 6 4 3 3 3 4 4 7 13 15 16 17 18 17 15 16 17 17 18 19 20 21 20 19 20 21 21 22 23 25 27 28 30 31 32 32 32 32 32
2 1 1 1 3 3 1 1 0 1 4 5 4 3 3 1 1 2 2 2 2 3 3 3 2 1 0 0 1 4 5 4 4 4 5 6 7 8 7 5 5 6 6 6 5 4 4 3 3 3 3 4 4 11 14 15 16 17 18 17 15 17 18 19 20 20 21 21 21 20 19 19 21 22 22 22 23 25 27 29 30 31 31 31 32
1 0 1 3 3 2 1 0 1 3 5 4 2 1 1 1 2 2 2 2 3 3 1 -0 -0 -0 0 2 5 5 5 6 5 4 3 3 3 3 3 3 4 4 4 4 4 4 4 4 3 3 4 4 4 12 13 14 15 16 17 14 15 17 17 18 18 19 20 20 20 20 20 21 21 20 22 23 25 25 25 26 27 28 30 31 31
0 0 2 4 3 1 0 0 1 3 4 2 1 1 1 1 1 1 2 3 1 -1 -2 -2 -1 1 3 4 5 6 4 2 1 1 1 1 1 2 2 4 3 4 4 4 4 4 5 4 4 4 3 3 4 8 13 14 15 17 16 14 15 15 16 16 16 16 16 18 20 20 18 17 18 20 22 23 23 23 25 25 25 25 26 27 28
0 2 4 4 2 1 0 0 1 3 2 1 1 1 1 -0 -0 2 2 -0 -2 -2 -2 -1 0 2 4 6 4 2 0 -0 -0 -1 -0 1 2 3 3 5 5 5 5 5 4 4 5 5 5 5 6 6 6 7 12 13 15 16 14 12 12 13 14 15 16 17 18 17 16 16 16 17 19 20 21 22 23 22 22 24 25 25 25 25 26
1 3 4 3 1 1 1 1 2 3 2 1 0 -0 -1 -1 2 2 -1 -2 -3 -2 -1 -0 1 4 6 3 1 -1 -1 -1 -2 -1 -0 1 2 3 5 5 5 5 5 5 5 4 4 5 4 4 5 4 4 5 10 14 15 15 13 12 12 13 13 13 12 11 11 11 13 14 17 18 19 20 21 22 23 22 22 23 24 25 24 24 25
3 4 3 2 1 0 1 1 2 2 1 -0 -1 -1 -0 2 2 -1 -3 -3 -3 -2 -0 1 3 5 2 1 -1 -1 -1 -1 -1 -1 -1 0 2 3 3 3 4 4 4 4 4 4 3 3 4 4 4 5 5 5 8 14 16 16 15 13 13 13 13 13 13 13 13 16 17 17 17 17 19 19 21 23 24 24 23 23 24 24 24 23 25
3 4 5 1 1 1 1 1 2 1 -0 -1 -1 -1 0 2 -0 -3 -4 -3 -2 -1 1 2 4 1 -1 -1 -1 -1 -1 -1 -1 -1 -1 -0 0 1 1 2 2 3 3 2 2 2 2 3 3 4 5 5 6 7 8 15 16 16 15 13 13 13 13 14 14 14 14 15 15 14 13 15 17 18 19 20 22 23 24 24 24 24 24 24 25
4 5 3 1 2 1 1 1 1 -0 -0 -1 -1 -1 1 1 -2 -4 -4 -2 -1 -0 2 4 2 -1 -2 -2 -2 -1 -1 -1 -1 -1 -2 -2 -1 1 2 2 2 2 2 2 2 2 2 2 3 4 5 6 8 10 10 13 13 13 13 13 11 12 13 13 11 12 12 13 14 15 14 15 17 20 21 21 22 23 24 23 24 26 26 26 24
2 2 2 3 1 1 1 1 0 -1 -1 -0 -1 -1 0 -1 -3 -4 -2 -1 -0 0 2 3 0 -1 -2 -2 -2 -3 -2 -2 -2 -2 -3 -3 -1 1 1 1 0 1 1 1 2 2 2 2 3 5 6 7 7 8 9 8 10 12 12 12 12 12 14 14 13 13 14 15 17 16 15 17 19 20 21 22 22 22 22 22 24 25 25 24 24
2 2 2 3 2 1 1 0 -1 -1 -1 -1 -1 -1 -1 -2 -3 -2 -2 -1 -0 1 3 1 -0 -2 -3 -3 -4 -4 -4 -4 -3 -3 -2 -1 -0 -1 -1 -1 -0 0 -0 -1 -1 1 3 3 2 1 1 2 4 5 6 7 7 10 11 12 12 12 12 11 10 10 11 13 14 13 13 18 20 20 21 21 21 21 21 22 22 23 23 24 23
2 1 2 2 1 0 0 -1 -2 -2 -2 -2 -2 -2 -2 -3 -3 -2 -2 -2 0 2 1 -1 -2 -4 -4 -5 -5 -5 -5 -4 -3 -2 -2 -1 -2 -2 -2 -1 -1 -1 -1 -1 -0 0 -1 -1 -1 -1 0 1 2 4 4 5 6 7 10 11 11 11 10 9 9 10 12 13 15 18 19 19 19 19 20 20 20 20 21 21 21 21 22 22 22
1 1 1 1 0 -0 -1 -3 -3 -4 -3 -2 -2 -3 -4 -3 -2 -2 -1 -0 2 1 -2 -3 -4 -4 -5 -6 -7 -7 -6 -4 -3 -2 -2 -2 -3 -2 -2 -2 -2 -2 -2 -2 -2 -1 -1 -1 -1 -1 -0 1 2 2 3 3 5 6 6 9 11 9 9 9 9 10 11 15 18 18 18 18 18 18 19 18 19 19 20 20 21 22 21 20 19
0 0 0 -0 -1 -1 -2 -4 -5 -5 -4 -3 -4 -3 -2 -1 -2 -2 -1 2 -2 -4 -4 -5 -6 -6 -7 -7 -8 -7 -6 -5 -5 -4 -3 -3 -2 -2 -3 -3 -3 -2 -2 -2 -2 -2 -1 -1 -1 -0 0 1 1 2 2 2 3 3 3 4 5 5 7 8 7 7 9 11 13 16 15 15 15 16 16 17 17 17 18 19 20 20 19 18 18
-1 -1 -0 -1 -1 -2 -4 -5 -5 -5 -4 -4 -4 -4 -3 -3 -3 -2 0 0 -3 -5 -6 -7 -7 -7 -7 -8 -8 -6 -6 -6 -5 -4 -4 -4 -4 -4 -4 -4 -3 -2 -1 -2 -1 -1 -0 -0 0 1 1 2 2 2 2 2 3 3 4 4 4 4 3 3 5 6 9 11 11 15 14 14 13 13 14 15 15 15 16 17 15 16 17 16 17
-2 -2 -1 -2 -3 -3 -4 -5 -6 -5 -5 -5 -5 -3 -3 -4 -3 -1 0 -2 -4 -5 -6 -9 -8 -8 -9 -7 -7 -7 -7 -6 -6 -5 -5 -5 -4 -4 -3 -2 -2 -0 0 0 -0 -0 0 1 2 3 3 3 2 2 3 6 7 9 8 8 7 5 3 2 7 9 9 9 8 7 7 10 11 11 11 12 13 14 15 15 14 14 14 14 14
-2 -2 -2 -3 -4 -5 -6 -6 -6 -5 -5 -5 -4 -3 -4 -4 -2 -2 -4 -4 -5 -7 -10 -10 -9 -9 -9 -9 -8 -8 -8 -7 -7 -7 -6 -5 -3 -3 -3 -4 -3 -0 0 2 3 1 3 4 4 3 4 3 4 6 9 10 11 11 10 9 10 10 11 9 11 9 9 3 1 3 4 6 8 9 10 11 12 13 13 12 12 13 12 12 12
-3 -3 -4 -5 -5 -5 -6 -6 -6 -6 -6 -5 -5 -5 -5 -4 -4 -5 -5 -5 -8 -9 -9 -10 -10 -10 -9 -8 -8 -9 -9 -9 -8 -7 -7 -8 -9 -8 -2 -2 -2 -1 -1 1 6 7 7 5 2 1 2 4 5 6 8 9 10 11 7 7 7 8 8 10 10 7 3 2 3 4 5 5 6 8 9 10 10 11 12 11 11 11 10 11 11